Retour au catalogue

KUIPER-00173

ActifCommunicationsLEO
NORAD 65786·PAYLOAD·🇺🇸 United States

Lancé Sep 25, 2025 depuis Cape Canaveral Space Force Station

Loading…

Prochains Passages (prochaines 24 heures)

TLE

FraisSource: CelesTrak SupGP

Époque: Sep 14, 2026, 18:50 UTC

1 65786C 25217AA  26257.78518519  .00000625  00000+0  81795-4 0  2578
2 65786  51.8992 276.9361 0000485  44.6527 355.8964 14.79916439    11

Suivez KUIPER-00173 en temps réel avec AllMySat

Download on the App Store